Regional Weather Roundup
Issued by NWS

Home | Current Version | Previous Version | Graphics & Text | Print | Product List | Glossary Off
Versions: 1 2 3 4 5 6 7 8 9 10 11 12 13 14 15 16 17 18 19 20 21 22 23 24 25 26 27 28 29 30 31 32 33 34 35 36 37 38 39 40 41 42 43 44 45 46 47 48 49 50

000
ASUS45 KCYS 230310
RWRWY

WYOMING REGIONAL WEATHER ROUNDUP
NATIONAL WEATHER SERVICE CHEYENNE WY
900 PM MDT MON SEP 22 2014

NOTE:  "FAIR" INDICATES FEW OR NO CLOUDS BELOW 12,000 FEET
WITH NO SIGNIFICANT WEATHER AND/OR OBSTRUCTIONS TO VISIBILITY.

WYZ001-230400-
YELLOWSTONE NATIONAL PARK

CITY           SKY/WX    TMP DP  RH WIND       PRES   REMARKS
LK YELLOWSTONE   N/A     48  46  93 CALM      30.29R
W YELLOWSTONE  NOT AVBL

$$
WYZ002>013-054>058-071-098>099-230400-
NORTHERN WYOMING

CITY           SKY/WX    TMP DP  RH WIND       PRES   REMARKS
JACKSON        CLOUDY    54  48  82 SW8       30.22R
CODY           PTCLDY    66  43  42 W13G20    30.06R
GREYBULL       PTCLDY    69  45  41 VRB3      29.97R
WORLAND        MOCLDY    65  48  54 SW5       29.98R
SHERIDAN       MOCLDY    59  49  69 SW6       29.97R
BUFFALO        CLOUDY    66  42  41 W9        30.02R
GILLETTE       CLOUDY    64  49  57 W12       29.96R
HULETT         FAIR      70  45  40 MISG      29.95
NEWCASTLE      MOCLDY    61  52  72 E7        30.00

$$
WYZ014>020-022>026-101>103-230400-
CENTRAL WYOMING

CITY           SKY/WX    TMP DP  RH WIND       PRES   REMARKS
BIG PINEY      PTCLDY    49  45  86 NE6       30.26R
PINEDALE       CLOUDY    50  46  87 NW6       30.27R
DUBOIS         FAIR      50  39  66 NW9       30.22S
LANDER         MOCLDY    64  38  38 CALM      30.09R
RIVERTON       MOCLDY    65  40  39 NW15      30.10R
CASPER         MOCLDY    64  40  41 SW12      30.05R
DOUGLAS        CLOUDY    62  47  57 S8        30.05S

$$
WYZ021-027>030-104>119-230400-
SOUTHERN WYOMING

CITY           SKY/WX    TMP DP  RH WIND       PRES   REMARKS
EVANSTON       CLOUDY    57  43  59 W8        30.27R
KEMMERER       PTCLDY    50  41  71 SW12      30.27S
FORT BRIDGER   MOCLDY    57  44  61 W7        30.29R
ROCK SPRINGS   MOCLDY    56  44  64 NW6       30.24R
DIXON          CLOUDY    54  49  83 SE7       30.28S
RAWLINS        PTCLDY    54  45  71 W15       30.22R
SARATOGA       MOCLDY    54  45  71 SW18G26   30.25S
LARAMIE        MOCLDY    52  42  69 SW15      30.23R
CHEYENNE       CLOUDY    61  42  49 W15G23    30.17S
TORRINGTON     PTCLDY    59  56  89 SE7       30.03F
PINE BLUFFS    MOCLDY    55  52  88 CALM      30.12F

$$



USA.gov is the U.S. government's official web portal to all federal, state and local government web resources and services.